Location: Ammareddip?lem
(16.9681°N, 80.4999°E)
Time: 07:50:30
(UTC+00:00)

Envisat - Pass Details

Date: 25 October 2021
Orbit: 764 x 766 km, 98.2° (Epoch: 30 November)

Event Time Altitude Azimuth Distance (km) Brightness Sun altitude
Rises 22:12:50 0° 48° (NE) 3,222 6.8 -34.2°
Reaches altitude 10° 22:17:59 10° 93° (E) 2,293 6.3 -33.0°
Maximum altitude 22:18:20 10° 97° (E) 2,289 6.3 -32.9°
Drops below altitude 10° 22:18:40 10° 101° (E) 2,293 6.3 -32.8°
Sets 22:23:47 0° 146° (SE) 3,216 6.7 -31.6°
